| time (UTC) | temp F | wind direction | speed MPH | gust MPH | rain 1hr in | rain 24hr in | rain mn in | humidity % | barometer mb |
| 20260504192226 | 57 | 0.0 | 0.0 | 0.25 | 0.51 | 0.51 | 95 | 1011.7 | |
| 20260504191223 | 57 | 0.0 | 0.0 | 0.38 | 0.51 | 0.51 | 95 | 1011.8 | |
| 20260504190220 | 56 | 0.0 | 0.0 | 0.50 | 0.50 | 0.50 | 95 | 1011.8 | |
| 20260504185217 | 56 | 0.0 | 0.0 | 0.50 | 0.50 | 0.50 | 94 | 1011.7 | |
| 20260504184234 | 56 | 0.0 | 0.0 | 0.49 | 0.49 | 0.49 | 94 | 1011.8 | |
| 20260504183231 | 57 | 1 | 1.0 | 2.0 | 0.43 | 0.43 | 0.43 | 93 | 1011.7 |
| 20260504182228 | 57 | 329 | 1.0 | 3.0 | 0.26 | 0.26 | 0.26 | 91 | 1011.8 |
| 20260504181225 | 59 | 318 | 2.0 | 3.0 | 0.13 | 0.13 | 0.13 | 89 | 1011.6 |
| 20260504180221 | 61 | 301 | 2.0 | 7.0 | 0.00 | 0.00 | 0.00 | 86 | 1011.6 |
| 20260504175218 | 62 | 334 | 1.0 | 4.0 | 0.00 | 0.00 | 0.00 | 83 | 1011.2 |
| 20260504174235 | 64 | 333 | 2.0 | 4.0 | 0.00 | 0.00 | 0.00 | 76 | 1011.1 |
| 20260504173232 | 65 | 149 | 1.0 | 2.0 | 0.00 | 0.00 | 0.00 | 73 | 1011.1 |
| 20260504172229 | 65 | 132 | 0.0 | 2.0 | 0.00 | 0.00 | 0.00 | 73 | 1011.1 |
| 20260504171226 | 65 | 229 | 0.0 | 2.0 | 0.00 | 0.00 | 0.00 | 73 | 1011.1 |
| 20260504170223 | 66 | 164 | 0.0 | 2.0 | 0.00 | 0.00 | 0.00 | 73 | 1010.9 |
| 20260504160224 | 66 | 0.0 | 0.0 | 0.00 | 0.00 | 0.00 | 69 | 1011.1 | |
| 20260504150225 | 67 | 235 | 0.0 | 3.0 | 0.00 | 0.00 | 0.00 | 68 | 1011.3 |
| 20260504141229 | 67 | 245 | 1.0 | 2.0 | 0.00 | 0.00 | 0.00 | 68 | 1011.6 |
| 20260504140225 | 67 | 244 | 0.0 | 2.0 | 0.00 | 0.00 | 0.00 | 67 | 1011.7 |
| 20260504130226 | 67 | 238 | 1.0 | 3.0 | 0.00 | 0.00 | 0.00 | 69 | 1011.9 |
| 20260504120226 | 66 | 251 | 1.0 | 3.0 | 0.00 | 0.00 | 0.00 | 71 | 1012.1 |
| 20260504110226 | 63 | 257 | 1.0 | 3.0 | 0.00 | 0.00 | 0.00 | 77 | 1012.4 |
| 20260504100225 | 65 | 153 | 1.0 | 3.0 | 0.00 | 0.00 | 0.00 | 72 | 1012.3 |
| 20260504081223 | 61 | 192 | 0.0 | 1.0 | 0.00 | 0.00 | 0.00 | 82 | 1012.4 |
| 20260504080220 | 61 | 173 | 0.0 | 2.0 | 0.00 | 0.00 | 0.00 | 83 | 1012.3 |
| 20260504070219 | 59 | 0.0 | 0.0 | 0.00 | 0.00 | 0.00 | 89 | 1012.1 | |
| 20260504060219 | 57 | 249 | 0.0 | 1.0 | 0.00 | 0.01 | 0.00 | 93 | 1011.6 |
| 20260504050220 | 56 | 0.0 | 0.0 | 0.00 | 0.01 | 0.00 | 95 | 1011.3 | |
| 20260504045216 | 56 | 0.0 | 0.0 | 0.00 | 0.01 | 0.00 | 95 | 1011.2 | |
| 20260504044233 | 56 | 0.0 | 0.0 | 0.00 | 0.01 | 0.00 | 95 | 1011.2 | |
| 20260504043230 | 56 | 0.0 | 0.0 | 0.00 | 0.01 | 0.00 | 95 | 1011.2 | |
| 20260504042232 | 56 | 0.0 | 0.0 | 0.00 | 0.01 | 0.00 | 95 | 1011.1 | |
| 20260504041224 | 56 | 0.0 | 0.0 | 0.00 | 0.01 | 0.00 | 95 | 1011.2 | |
| 20260504040221 | 56 | 0.0 | 0.0 | 0.00 | 0.01 | 0.00 | 96 | 1011.3 | |
| 20260504035218 | 56 | 151 | 0.0 | 1.0 | 0.00 | 0.01 | 0.00 | 96 | 1011.3 |
| 20260504034234 | 55 | 0.0 | 0.0 | 0.00 | 0.01 | 0.00 | 96 | 1011.3 | |
| 20260504033231 | 55 | 0.0 | 0.0 | 0.00 | 0.01 | 0.00 | 96 | 1011.4 | |
| 20260504032228 | 55 | 0.0 | 0.0 | 0.00 | 0.01 | 0.00 | 96 | 1011.3 | |
| 20260504031225 | 55 | 0.0 | 0.0 | 0.00 | 0.01 | 0.00 | 95 | 1011.4 | |
| 20260504030222 | 55 | 0.0 | 0.0 | 0.00 | 0.01 | 0.00 | 96 | 1011.4 | |
| 20260504025219 | 55 | 0.0 | 0.0 | 0.00 | 0.01 | 0.00 | 95 | 1011.4 | |
| 20260504024216 | 55 | 0.0 | 0.0 | 0.00 | 0.01 | 0.00 | 95 | 1011.2 | |
| 20260504023232 | 55 | 0.0 | 0.0 | 0.00 | 0.01 | 0.00 | 95 | 1011.2 | |
| 20260504022230 | 55 | 0.0 | 0.0 | 0.00 | 0.01 | 0.00 | 95 | 1011.0 | |
| 20260504021226 | 55 | 0.0 | 0.0 | 0.00 | 0.01 | 0.00 | 95 | 1011.0 | |
| 20260504020223 | 56 | 0.0 | 0.0 | 0.00 | 0.01 | 0.00 | 95 | 1011.0 | |
| 20260504015220 | 55 | 0.0 | 0.0 | 0.00 | 0.01 | 0.00 | 95 | 1011.0 | |
| 20260504014217 | 55 | 229 | 0.0 | 1.0 | 0.00 | 0.01 | 0.00 | 95 | 1011.0 |
| 20260504013234 | 55 | 0.0 | 0.0 | 0.00 | 0.01 | 0.00 | 94 | 1011.1 | |
| 20260504012231 | 55 | 0.0 | 0.0 | 0.00 | 0.01 | 0.00 | 94 | 1011.0 | |
| 20260504011227 | 55 | 0.0 | 0.0 | 0.00 | 0.01 | 0.00 | 94 | 1011.0 | |
| 20260504010224 | 55 | 0.0 | 0.0 | 0.00 | 0.01 | 0.00 | 94 | 1011.0 | |
| 20260504005223 | 55 | 0.0 | 0.0 | 0.00 | 0.01 | 0.00 | 93 | 1011.0 | |
| 20260504004218 | 56 | 247 | 0.0 | 2.0 | 0.00 | 0.01 | 0.00 | 93 | 1010.9 |
| 20260504003235 | 56 | 250 | 1.0 | 2.0 | 0.00 | 0.01 | 0.00 | 92 | 1010.9 |
| 20260504002232 | 57 | 250 | 1.0 | 3.0 | 0.00 | 0.01 | 0.00 | 91 | 1010.9 |
| 20260504001228 | 57 | 268 | 2.0 | 6.0 | 0.00 | 0.01 | 0.00 | 91 | 1010.9 |
| 20260504000226 | 58 | 247 | 2.0 | 3.0 | 0.00 | 0.01 | 0.00 | 90 | 1010.8 |
| 20260503235222 | 58 | 260 | 2.0 | 4.0 | 0.00 | 0.01 | 0.00 | 90 | 1011.0 |
| 20260503234218 | 58 | 250 | 2.0 | 7.0 | 0.00 | 0.01 | 0.00 | 89 | 1010.8 |
| 20260503233240 | 58 | 253 | 3.0 | 7.0 | 0.00 | 0.01 | 0.00 | 89 | 1010.8 |
| 20260503232231 | 58 | 265 | 2.0 | 4.0 | 0.00 | 0.01 | 0.00 | 89 | 1011.0 |
| 20260503231228 | 58 | 258 | 3.0 | 6.0 | 0.00 | 0.01 | 0.00 | 89 | 1011.0 |
| 20260503230225 | 58 | 251 | 2.0 | 4.0 | 0.00 | 0.01 | 0.00 | 89 | 1010.9 |
| 20260503225222 | 58 | 262 | 1.0 | 3.0 | 0.00 | 0.02 | 0.00 | 89 | 1010.8 |
| 20260503224218 | 59 | 263 | 2.0 | 3.0 | 0.00 | 0.02 | 0.00 | 88 | 1010.6 |
| 20260503223235 | 59 | 214 | 1.0 | 3.0 | 0.00 | 0.02 | 0.00 | 88 | 1010.6 |
| 20260503222235 | 58 | 247 | 1.0 | 2.0 | 0.00 | 0.02 | 0.00 | 88 | 1010.6 |
| 20260503221229 | 58 | 245 | 1.0 | 2.0 | 0.00 | 0.02 | 0.00 | 88 | 1010.6 |
| 20260503220226 | 58 | 210 | 0.0 | 1.0 | 0.00 | 0.02 | 0.02 | 88 | 1010.6 |
| 20260503215222 | 58 | 262 | 1.0 | 3.0 | 0.00 | 0.02 | 0.02 | 88 | 1010.5 |
| 20260503214219 | 59 | 181 | 0.0 | 2.0 | 0.00 | 0.02 | 0.02 | 88 | 1010.6 |
| 20260503213216 | 59 | 214 | 0.0 | 2.0 | 0.00 | 0.02 | 0.02 | 87 | 1010.7 |
| 20260503212232 | 59 | 169 | 1.0 | 4.0 | 0.00 | 0.02 | 0.02 | 88 | 1010.6 |
| 20260503211229 | 59 | 168 | 2.0 | 3.0 | 0.00 | 0.02 | 0.02 | 88 | 1010.6 |
| 20260503210226 | 59 | 171 | 0.0 | 1.0 | 0.00 | 0.04 | 0.02 | 89 | 1010.6 |
| 20260503205222 | 59 | 274 | 0.0 | 3.0 | 0.00 | 0.07 | 0.02 | 89 | 1010.7 |
| 20260503204219 | 59 | 260 | 0.0 | 2.0 | 0.00 | 0.08 | 0.02 | 89 | 1010.6 |
| 20260503203216 | 59 | 192 | 1.0 | 3.0 | 0.00 | 0.08 | 0.02 | 89 | 1010.7 |
| 20260503202233 | 59 | 186 | 1.0 | 4.0 | 0.00 | 0.11 | 0.02 | 89 | 1010.7 |
| 20260503201229 | 59 | 271 | 1.0 | 3.0 | 0.00 | 0.15 | 0.02 | 90 | 1010.7 |
| 20260503200226 | 59 | 241 | 0.0 | 2.0 | 0.00 | 0.20 | 0.02 | 90 | 1010.9 |
| 20260503195223 | 59 | 147 | 1.0 | 2.0 | 0.00 | 0.22 | 0.02 | 90 | 1010.7 |
| 20260503194219 | 59 | 162 | 0.0 | 2.0 | 0.00 | 0.31 | 0.02 | 90 | 1010.7 |
| 20260503193235 | 59 | 200 | 0.0 | 2.0 | 0.00 | 0.31 | 0.02 | 89 | 1010.6 |